Flag for Norway Weather past 2 weeks in Stavern, Norway

43 °F

Drizzle. Mostly cloudy.

Feels Like: 32 °F
Forecast: 34 / 42 °F
Wind: 30 mph from South

Location: Torp

Current Time: Nov 29, 2015 at 1:59:35 AM

Latest Report: Nov 29, 2015 at 12:50 AM

Visibility: 4 mi

Pressure: 29.15 "Hg

Humidity: 93%

Dew point: 41 °F

Location of StavernLocation

Historic Weather in Stavern — Graph


Stavern temperature yesterday

Maximum temperature yesterday: 48 °F (at 12:50 AM)
Minimum temperature yesterday: 36 °F (at 6:20 PM)
Average temperature yesterday: 41 °F

Past Weeks' High & Low Weather Summary

High50 °F (Nov 16, 1:50 PM)100% (Nov 14, 12:20 AM)29.95 "Hg (Nov 14, 12:20 AM)
Low14 °F (Nov 23, 12:50 AM)64% (Nov 22, 4:20 PM)29.12 "Hg (Nov 28, 4:20 AM)
Average35 °F93%29.49 "Hg
* Reported Nov 14 12:20 AM — Nov 29 12:20 AM, Stavern, Weather by CustomWeather, © 2015

Note: Actual official high and low records may vary slightly from our data, if they occured in-between our weather recording intervals... More about our weather records


Stavern weather history for previous 24 hours

Time TempWeatherWind HumidityBarometerVisibility
12:20 AM
Sun, Nov 29
43 °FMostly cloudy.28 mph93%29.15 "HgN/A
11:50 PM
Sat, Nov 28
43 °FPartly cloudy.26 mph93%29.18 "HgN/A
11:20 PM43 °FPassing clouds.21 mph87%29.21 "HgN/A
10:50 PM43 °FPassing clouds.20 mph87%29.24 "HgN/A
10:20 PM43 °FPassing clouds.17 mph81%29.24 "HgN/A
9:20 PM37 °FPassing clouds.10 mph100%29.27 "HgN/A
8:50 PM39 °FRain showers. Passing clouds.9 mph87%29.30 "Hg2 mi
8:20 PM36 °FClear.8 mph93%29.33 "Hg10 mi
7:50 PM37 °FClear.12 mph81%29.33 "Hg10 mi
7:20 PM37 °FClear.9 mph81%29.33 "Hg10 mi
6:50 PM36 °FClear.9 mph87%29.36 "Hg10 mi
6:20 PM36 °FClear.10 mph87%29.33 "Hg10 mi
5:50 PM37 °FClear.12 mph75%29.36 "Hg10 mi
5:20 PM37 °FClear.8 mph75%29.33 "Hg10 mi
4:50 PM37 °FClear.8 mph75%29.33 "Hg10 mi
4:20 PM37 °FClear.8 mph75%29.33 "Hg10 mi
3:50 PM37 °FClear.10 mph75%29.33 "Hg10 mi
3:20 PM39 °FSunny.10 mph70%29.33 "Hg10 mi
2:50 PM39 °FSunny.6 mph75%29.33 "Hg10 mi
2:20 PM41 °FPassing clouds.3 mph66%29.33 "HgN/A
1:50 PM41 °FPassing clouds.5 mph70%29.30 "HgN/A
1:20 PM41 °FSunny.6 mph70%29.30 "Hg10 mi
12:50 PM41 °FSunny.8 mph70%29.30 "Hg10 mi
12:20 PM39 °FSunny.7 mph81%29.30 "Hg10 mi
11:50 AM39 °FSunny.6 mph81%29.30 "Hg10 mi
11:20 AM39 °FPassing clouds.5 mph75%29.27 "HgN/A
10:50 AM39 °FPassing clouds.9 mph75%29.27 "HgN/A
10:20 AM41 °FPassing clouds.6 mph76%29.24 "HgN/A
9:50 AM41 °FSunny.8 mph87%29.24 "Hg10 mi
9:20 AM41 °FSunny.9 mph93%29.24 "Hg10 mi
8:50 AM39 °FSunny.6 mph100%29.24 "Hg10 mi
8:20 AM39 °FClear.5 mph100%29.21 "Hg10 mi
7:50 AM39 °FClear.7 mph100%29.21 "Hg10 mi
7:20 AM39 °FClear.5 mph100%29.18 "Hg10 mi
6:50 AM39 °FPassing clouds.6 mph100%29.18 "HgN/A
6:20 AM41 °FPartly cloudy.6 mph100%29.15 "HgN/A
5:50 AM41 °FPassing clouds.12 mph100%29.15 "HgN/A
5:20 AM43 °FDrizzle. Overcast.16 mph100%29.12 "HgN/A
4:50 AM46 °FRain. Low clouds.25 mph100%29.12 "Hg1 mi
4:20 AM46 °FLight rain. Low clouds.26 mph100%29.12 "Hg1 mi
3:50 AM46 °FLight rain. Low clouds.26 mph100%29.15 "Hg1 mi
3:20 AM48 °FLow clouds.24 mph100%29.15 "Hg3 mi
2:50 AM48 °FLight rain. Mostly cloudy.24 mph100%29.18 "Hg2 mi
2:20 AM48 °FLight rain. Low clouds.23 mph100%29.18 "Hg2 mi
1:50 AM48 °FLight rain. Low clouds.23 mph100%29.18 "Hg2 mi
1:20 AM48 °FLight rain. Mostly cloudy.25 mph100%29.21 "Hg2 mi
Weather by CustomWeather, © 2015

See weather overviewHow to use our weather pages